User: anonymous   Login
Location: Unspecified
(0.0000°N, 0.0000°E)
Time: 19:02:18
(UTC+01:00)
Language:

DELTA 2 R/B (1) - Orbit

View from above orbital plane
View from above orbital plane
View from above satellite
View from above satellite

Ground track
Ground track

The orbit data is extracted from the following two-line orbital elements,

1 27665U 03005C   18049.86531383 +.00000051 +00000-0 +54027-4 0  9991
2 27665 039.5760 294.2058 0007214 074.0273 337.7383 14.28467425786126
Epoch (UTC): 18 February 2018 20:46:03
Eccentricity: 0.0007214
inclination: 39.5760°
perigee height: 791 km
apogee height: 802 km
right ascension of ascending node: 294.2058°
argument of perigee: 74.0273°
revolutions per day: 14.28467425
mean anomaly at epoch: 337.7383°
orbit number at epoch: 78612

The dashed part of the orbit path shows where the satellite is in the earth's shadow,  

DLR